TimeEST,TemperatureF,Dew PointF,Humidity,Sea Level PressureIn,VisibilityMPH,Wind Direction,Wind SpeedMPH,Gust SpeedMPH,PrecipitationIn,Events,Conditions,WindDirDegrees,DateUTC
12:55 AM,50.9,47.5,88,30.17,10.0,South,5.8,-,N/A,,Overcast,190,2011-12-06 05:55:00
1:55 AM,51.3,47.8,88,30.16,10.0,South,4.6,-,N/A,,Overcast,190,2011-12-06 06:55:00
2:55 AM,50.7,48.0,90,30.13,10.0,Calm,Calm,-,N/A,,Overcast,0,2011-12-06 07:55:00
3:55 AM,51.6,49.1,91,30.12,10.0,Calm,Calm,-,N/A,,Overcast,0,2011-12-06 08:55:00
4:55 AM,52.9,49.8,89,30.12,10.0,SSW,6.9,-,N/A,,Overcast,210,2011-12-06 09:55:00
5:55 AM,52.5,50.0,91,30.10,10.0,SSE,4.6,-,N/A,,Overcast,160,2011-12-06 10:55:00
6:42 AM,51.8,50.0,94,30.09,10.0,South,4.6,-,N/A,Rain,Light Rain,190,2011-12-06 11:42:00
6:55 AM,52.9,50.7,92,30.09,10.0,Calm,Calm,-,0.00,Rain,Light Rain,0,2011-12-06 11:55:00
7:55 AM,52.7,51.6,96,30.08,4.0,SSE,4.6,-,0.00,Rain,Light Rain,160,2011-12-06 12:55:00
8:55 AM,53.6,53.1,98,30.06,5.0,SSE,4.6,-,0.00,Rain,Light Rain,160,2011-12-06 13:55:00
9:29 AM,53.6,53.6,100,30.05,2.0,South,5.8,-,N/A,Rain,Light Rain,170,2011-12-06 14:29:00
9:48 AM,55.4,53.6,94,30.04,7.0,South,3.5,-,N/A,Rain,Light Rain,170,2011-12-06 14:48:00
9:55 AM,54.7,54.5,99,30.05,10.0,South,5.8,-,0.01,,Overcast,170,2011-12-06 14:55:00
10:08 AM,55.4,55.4,100,30.04,10.0,South,5.8,-,N/A,,Overcast,180,2011-12-06 15:08:00
10:55 AM,58.3,57.6,97,30.01,10.0,SSW,8.1,-,N/A,,Mostly Cloudy,200,2011-12-06 15:55:00
11:55 AM,60.8,55.8,83,29.99,10.0,SSW,10.4,-,N/A,,Mostly Cloudy,210,2011-12-06 16:55:00
12:33 PM,62.6,55.4,77,29.96,10.0,SW,12.7,17.3,N/A,,Mostly Cloudy,220,2011-12-06 17:33:00
12:43 PM,62.6,55.4,77,29.96,10.0,SW,9.2,-,N/A,,Mostly Cloudy,220,2011-12-06 17:43:00
12:55 PM,63.7,54.9,73,29.95,10.0,SW,10.4,-,N/A,,Mostly Cloudy,230,2011-12-06 17:55:00
1:55 PM,63.5,54.3,72,29.95,10.0,SW,9.2,-,N/A,,Mostly Cloudy,230,2011-12-06 18:55:00
2:55 PM,63.1,53.8,71,29.94,10.0,SW,5.8,-,N/A,,Overcast,230,2011-12-06 19:55:00
3:55 PM,60.8,54.1,79,29.94,10.0,SSW,5.8,-,N/A,,Overcast,200,2011-12-06 20:55:00
4:23 PM,60.8,53.6,77,29.94,10.0,SSW,3.5,-,N/A,,Overcast,200,2011-12-06 21:23:00
4:55 PM,59.7,54.3,82,29.94,10.0,SSE,4.6,-,N/A,,Overcast,150,2011-12-06 21:55:00
5:05 PM,59.0,53.6,82,29.93,10.0,SSE,6.9,-,N/A,Rain,Light Rain,160,2011-12-06 22:05:00
5:42 PM,59.0,55.4,88,29.93,10.0,South,6.9,-,N/A,Rain,Light Rain,170,2011-12-06 22:42:00
5:55 PM,57.9,55.6,92,29.93,7.0,South,4.6,-,0.01,Rain,Light Rain,180,2011-12-06 22:55:00
6:55 PM,57.0,56.5,98,29.94,5.0,SSE,4.6,-,0.02,Rain,Light Rain,150,2011-12-06 23:55:00
7:55 PM,56.7,56.3,99,29.94,8.0,South,4.6,-,0.03,Rain,Light Rain,170,2011-12-07 00:55:00
8:11 PM,57.2,55.4,94,29.93,5.0,South,5.8,-,N/A,Rain,Light Rain,180,2011-12-07 01:11:00
8:22 PM,57.2,57.2,100,29.93,5.0,South,6.9,-,N/A,Rain,Light Rain,170,2011-12-07 01:22:00
8:55 PM,56.8,56.5,99,29.92,6.0,South,4.6,-,0.00,Rain,Light Rain,180,2011-12-07 01:55:00
9:13 PM,57.2,55.4,94,29.91,5.0,South,4.6,-,N/A,Rain,Light Rain,180,2011-12-07 02:13:00
9:55 PM,56.1,55.8,99,29.91,5.0,South,5.8,-,0.01,Rain,Light Rain,180,2011-12-07 02:55:00
10:55 PM,55.9,55.6,99,29.89,4.0,South,3.5,-,0.00,Rain,Light Rain,180,2011-12-07 03:55:00
11:24 PM,55.4,55.4,100,29.89,7.0,Calm,Calm,-,N/A,,Overcast,0,2011-12-07 04:24:00
11:55 PM,56.3,56.1,99,29.89,7.0,SW,3.5,-,0.00,,Overcast,230,2011-12-07 04:55:00